CW9804 Weather Reports


Display with metric or nautical units.
time (UTC)temp
F
wind
direction
speed
MPH
gust
MPH
rain 1hr
in
rain 24hr
in
rain mn
in
humidity
%
barometer
mb
20260504171911 70 251 5.0 8.0 0.00 0.28 0.00 40 1015.1
20260504170411 71 224 8.0 13.0 0.00 0.00 0.00 39 1015.0
20260504160412 75 218 5.0 12.0 0.00 0.00 0.00 38 1015.1
20260504150411 76 231 6.0 11.0 0.00 0.00 0.00 36 1015.3
20260504130410 78 309 12.0 19.0 0.00 0.00 0.00 37 1015.6
20260504110410 75 123 2.0 11.0 0.00 0.00 0.00 41 1016.9
20260504100409 72 259 7.0 14.0 0.00 0.00 0.00 46 1017.6
20260504081911 63 46 3.0 4.0 0.00 0.00 0.00 65 1018.0
20260504080411 61 75 2.0 5.0 0.00 0.00 0.00 68 1018.1
20260504070411 56 331 1.0 2.0 0.00 0.00 0.00 72 1018.1
20260504050415 46 158 0.0 0.0 0.00 0.00 0.00 87 1017.6
20260504044915 45 158 0.0 0.0 0.00 0.00 0.00 88 1017.6
20260504043415 45 158 0.0 0.0 0.00 0.00 0.00 88 1017.5
20260504041914 45 159 0.0 0.0 0.00 0.00 0.00 87 1017.5
20260504040414 45 158 0.0 0.0 0.00 0.00 0.00 87 1017.5
20260504034914 45 158 0.0 0.0 0.00 0.00 0.00 86 1017.5
20260504033414 46 159 0.0 0.0 0.00 0.00 0.00 86 1017.4
20260504031914 46 158 0.0 0.0 0.00 0.00 0.00 85 1017.4
20260504030414 47 158 0.0 0.0 0.00 0.00 0.00 84 1017.7
20260504024913 47 158 0.0 1.0 0.00 0.00 0.00 83 1017.7
20260504023413 48 158 1.0 2.0 0.00 0.00 0.00 82 1017.7
20260504021913 47 153 0.0 0.0 0.00 0.00 0.00 83 1017.8
20260504020413 48 153 0.0 0.0 0.00 0.00 0.00 82 1017.8
20260504014913 49 153 0.0 0.0 0.00 0.00 0.00 80 1017.8
20260504013413 49 153 0.0 0.0 0.00 0.00 0.00 79 1017.7
20260504011913 49 153 0.0 0.0 0.00 0.00 0.00 80 1017.7
20260504004913 50 153 0.0 2.0 0.00 0.00 0.00 77 1017.7
20260504003412 51 153 1.0 2.0 0.00 0.00 0.00 74 1017.9
20260504001912 51 163 0.0 0.0 0.00 0.00 0.00 74 1017.8
20260504000412 51 163 0.0 0.0 0.00 0.00 0.00 76 1018.0
20260503234912 51 163 0.0 0.0 0.00 0.00 0.00 75 1018.0
20260503233412 52 163 0.0 0.0 0.00 0.00 0.00 72 1018.0
20260503231912 53 164 1.0 4.0 0.00 0.00 0.00 70 1018.1
20260503230412 53 200 0.0 2.0 0.00 0.00 0.00 69 1018.0
20260503224911 54 200 0.0 0.0 0.00 0.00 0.00 71 1017.7
20260503223412 54 200 0.0 0.0 0.00 0.00 0.00 70 1017.7
20260503221911 55 231 1.0 2.0 0.00 0.00 0.00 69 1017.6
20260503220411 55 231 0.0 2.0 0.00 0.00 0.00 66 1017.6
20260503213411 56 235 0.0 4.0 0.00 0.00 0.00 65 1017.9
20260503211910 57 160 0.0 2.0 0.00 0.00 0.00 64 1018.0
20260503210410 58 246 0.0 0.0 0.00 0.00 0.00 64 1017.9
20260503204911 57 253 0.0 2.0 0.00 0.00 0.00 67 1018.0
20260503203411 58 254 0.0 2.0 0.00 0.00 0.00 66 1017.8
20260503201912 60 179 1.0 2.0 0.00 0.00 0.00 63 1017.9
20260503200411 61 175 2.0 3.0 0.00 0.00 0.00 63 1017.9
20260503194911 63 175 0.0 2.0 0.00 0.00 0.00 59 1018.0
20260503193411 65 175 3.0 5.0 0.00 0.00 0.00 55 1017.9
20260503191911 65 169 2.0 4.0 0.00 0.00 0.00 55 1017.8
20260503190411 65 150 2.0 4.0 0.00 0.00 0.00 54 1017.6
20260503184911 67 147 3.0 5.0 0.00 0.00 0.00 52 1017.5
20260503183411 69 221 1.0 4.0 0.00 0.00 0.00 49 1017.5
20260503181911 69 232 5.0 9.0 0.00 0.00 0.00 48 1017.2
20260503180411 70 213 3.0 5.0 0.00 0.00 0.00 49 1017.0
20260503174911 71 207 2.0 6.0 0.00 0.00 0.00 48 1016.8